SCP
1 0 0 0 0 0 0 0 0 0 0 0 1 0 0 0 0 0 0 1 1 1 1 1 1 1 1 1 1 1 1 1 0 0 0 0 0 0 0 0 0 0 0 0 0 0 0 0 0
0 0 0 0 0 0 0 0 0 0 0 1 1 1 0 1 0 0 1 1 1 1 1 1 1 1 1 1 1 1 1 1 1 0 0 0 0 0 0 0 0 0 0 0 0 0 0 0 0
0 0 0 0 0 0 0 0 1 1 1 1 1 1 1 1 1 1 1 1 1 1 1 1 1 1 1 1 1 1 1 1 1 1 0 0 0 0 0 0 0 0 0 0 0 0 0 0 0
0 0 0 0 0 0 0 0 1 1 1 1 1 1 1 1 1 1 1 1 1 1 1 1 1 1 1 1 1 1 1 1 1 1 0 0 0 0 0 0 0 0 0 0 0 0 0 0 0
0 0 0 0 0 0 0 1 1 2 2 2 2 1 1 1 1 1 1 1 2 2 1 1 1 1 1 1 1 1 1 1 1 0 0 0 0 0 0 0 0 0 0 0 0 0 0 0 0
0 0 0 0 0 0 1 1 2 3 3 3 2 2 2 2 2 2 2 2 2 2 2 2 1 1 1 1 1 1 1 1 1 1 0 0 0 0 0 0 0 0 0 0 0 0 0 0 0
0 0 0 0 0 0 1 1 2 2 2 2 2 2 2 3 3 2 2 3 3 3 2 2 2 2 1 1 1 1 1 1 1 1 1 0 1 1 1 1 1 1 0 0 0 0 0 0 0
0 0 0 0 0 0 1 1 1 2 2 2 2 3 3 3 3 3 3 4 3 3 3 2 2 1 1 1 1 1 1 1 1 1 1 1 1 1 1 1 1 1 1 0 0 0 0 1 1
0 0 0 0 0 0 1 1 2 2 2 2 2 3 4 5 4 4 4 4 3 2 2 2 1 1 1 1 1 1 1 1 1 1 1 1 1 1 1 1 1 1 1 1 1 1 1 1 1
0 0 0 0 0 1 1 2 2 2 2 2 3 4 6 7 6 5 5 4 3 2 2 2 1 1 1 1 1 1 1 1 1 1 1 0 0 1 1 1 1 1 1 1 1 1 1 1 1
0 0 0 0 0 1 1 2 2 2 2 2 3 5 8 8 6 5 5 4 3 2 2 2 1 1 1 1 1 1 1 1 1 0 0 0 0 0 1 1 1 1 1 1 1 1 1 1 1
0 0 0 0 0 1 1 2 2 2 2 2 3 6 8 8 6 5 4 3 3 2 2 2 1 1 1 1 1 1 1 1 1 0 0 0 0 0 1 1 1 1 0 0 1 1 1 1 1
0 0 0 0 1 1 1 1 1 1 1 2 3 5 7 7 6 5 4 3 2 2 2 1 1 1 1 1 1 1 1 1 1 1 0 0 0 0 0 0 0 0 0 0 0 0 1 1 1
0 0 0 0 1 1 1 1 1 1 2 2 3 3 4 4 5 5 4 3 2 2 1 1 1 1 1 1 1 1 1 1 1 1 1 0 0 0 0 0 0 0 0 0 0 0 0 0 0
0 0 0 0 1 1 1 1 1 2 2 2 2 2 3 3 3 4 4 3 2 2 1 1 1 1 1 1 0 0 1 1 1 1 0 0 0 0 0 0 0 0 0 0 0 0 0 0 0
0 0 0 0 0 1 1 1 1 2 2 2 2 2 2 3 3 3 3 2 2 2 2 1 1 1 1 1 0 0 1 1 1 0 0 0 0 0 0 0 0 0 0 0 0 0 0 0 0
0 0 0 0 0 0 0 1 1 1 2 2 1 2 2 2 3 2 2 2 2 2 2 2 1 1 1 1 0 0 1 1 1 0 0 0 0 0 0 0 0 0 0 0 0 0 0 0 0
0 0 0 0 0 0 0 0 0 1 1 1 1 1 1 2 3 3 2 2 3 3 3 2 1 1 1 1 1 0 0 0 0 0 0 0 0 0 0 0 0 0 0 0 0 0 0 0 0
0 0 0 0 0 0 0 0 0 0 1 1 1 1 1 1 2 2 2 2 3 3 3 2 1 1 1 1 1 0 0 0 0 0 0 0 0 0 0 0 0 0 0 0 0 0 0 0 0
0 0 0 0 0 0 0 0 0 0 1 1 1 1 1 1 1 1 1 2 2 3 2 2 2 1 1 1 1 0 0 0 0 0 0 0 0 0 0 0 0 0 0 0 0 0 0 0 0
0 0 0 0 0 0 0 0 0 0 0 1 1 1 1 1 1 1 1 1 2 2 2 2 2 1 1 1 0 0 0 0 0 0 0 0 0 0 0 0 0 0 0 0 0 0 0 0 0
0 0 0 0 0 0 0 0 0 0 0 0 1 1 1 1 1 1 1 2 2 2 2 2 2 1 1 1 0 0 0 0 0 0 0 0 0 0 0 0 0 0 0 0 0 0 0 0 0
0 0 0 0 0 0 0 0 0 0 0 0 0 1 1 1 1 1 1 2 3 3 3 2 2 1 1 1 0 0 0 0 0 0 0 0 0 0 0 0 0 0 0 0 0 0 0 0 0
0 0 0 0 0 0 0 0 0 0 0 0 0 0 1 1 1 1 1 2 4 4 3 3 2 1 1 0 0 0 0 0 0 0 0 0 0 0 0 0 0 0 0 0 0 0 0 0 0
0 0 0 0 0 0 0 0 0 0 0 0 0 0 0 0 0 1 2 3 5 6 5 3 2 1 1 0 0 0 0 0 0 0 0 0 0 0 0 0 0 0 0 0 0 0 0 0 0
0 0 0 0 0 0 0 0 0 0 0 0 0 0 0 0 0 1 2 5 6 6 4 3 2 1 0 0 0 0 0 0 0 0 0 0 0 0 0 0 0 0 0 0 0 0 0 0 0
0 0 0 0 0 0 0 0 0 0 0 0 0 0 0 0 0 1 2 4 5 4 3 2 1 1 1 0 0 0 0 0 0 0 0 0 0 0 0 0 0 0 0 0 0 0 0 0 0
0 0 0 0 0 0 0 0 0 0 0 0 0 0 0 0 0 1 1 2 2 2 2 2 1 1 1 0 0 0 1 1 1 1 0 0 0 0 0 0 0 0 0 0 0 0 0 0 0
0 0 0 0 0 0 0 0 0 0 0 0 0 0 0 0 0 0 0 0 0 1 1 1 1 1 1 1 1 1 1 1 1 1 1 0 0 0 0 0 0 0 0 0 0 0 0 0 0
0 0 0 0 0 0 0 0 0 0 0 0 0 0 0 0 0 0 0 0 0 1 1 1 1 1 1 1 1 1 1 2 2 2 1 0 0 0 0 0 0 0 0 0 0 0 0 0 0
Wind_Speed
4 2 1 1 3 4 1 1 2 2 2 1 3 3 3 1 3 2 1 7 13 12 10 14 16 16 17 16 16 16 15 15 14 14 13 12 11 11 10 10 9 9 9 9 9 9 9 9 9
3 2 1 3 4 2 2 2 3 4 5 5 3 3 2 1 2 3 4 7 12 11 9 11 17 16 16 16 16 15 15 14 13 13 12 11 11 10 9 9 9 8 8 9 9 9 9 9 8
2 1 3 3 2 2 2 3 4 3 5 5 4 3 2 1 4 4 5 10 10 9 8 11 18 16 16 15 15 14 14 13 13 12 11 10 10 9 8 8 8 8 8 7 8 8 8 8 7
2 3 4 3 1 4 3 3 5 5 3 2 4 4 2 1 3 6 12 12 11 8 7 10 17 16 15 14 14 14 13 13 12 11 10 10 9 8 7 7 7 7 7 7 7 7 7 6 6
3 4 4 3 4 4 2 3 6 4 4 3 4 4 2 3 7 13 13 12 10 7 6 8 16 15 15 14 14 13 13 12 11 10 9 9 8 7 7 6 6 5 5 6 6 5 5 5 5
4 4 4 2 5 3 1 1 4 3 3 3 4 4 2 3 9 12 11 9 8 8 6 7 14 15 14 14 13 13 12 11 11 10 9 8 7 6 6 5 5 5 5 4 4 4 4 4 4
4 3 1 3 4 3 1 0 2 4 3 3 3 5 3 4 7 11 10 8 7 7 6 5 6 9 13 13 12 12 11 11 10 9 8 7 6 5 5 4 4 4 4 3 3 3 3 2 2
4 4 1 3 3 3 2 2 1 2 2 2 3 5 5 6 8 11 11 9 7 5 5 5 5 5 5 7 11 11 11 10 9 8 7 6 5 4 4 3 3 4 4 3 3 3 2 2 1
4 4 2 4 5 4 3 3 1 1 2 1 1 1 5 12 11 11 10 8 8 7 5 5 5 5 5 4 7 8 9 8 7 6 6 4 1 1 0 2 3 3 3 3 4 4 3 2 1
4 3 7 5 5 4 4 4 4 3 2 1 1 3 9 12 12 13 12 12 10 9 7 5 5 5 5 5 4 3 3 3 3 2 2 2 2 1 1 2 0 0 0 0 1 1 1 1 1
6 7 5 4 4 3 4 3 3 4 3 5 6 8 10 12 10 11 11 10 9 7 7 6 6 5 5 3 3 2 2 2 2 3 3 3 2 2 2 2 2 2 2 2 2 2 1 1 0
5 6 5 4 2 3 5 5 3 3 3 3 7 11 12 12 11 9 9 8 7 8 7 6 5 5 4 3 3 3 2 2 2 2 3 3 2 2 2 2 2 2 1 1 1 1 1 1 1
4 4 3 3 1 3 4 3 3 2 2 4 7 8 9 10 8 6 5 5 5 6 6 6 6 5 4 4 3 3 3 3 3 2 2 3 3 2 2 2 2 2 2 1 1 1 1 2 2
3 2 2 1 1 2 4 1 1 2 3 6 7 7 8 8 8 6 5 5 6 6 6 6 6 5 5 4 3 3 3 3 3 2 3 4 3 3 3 2 2 2 2 1 1 2 2 1 1
1 1 3 0 1 2 4 0 2 3 4 4 5 6 6 5 6 6 6 6 7 7 6 6 6 5 6 5 5 3 3 3 3 3 3 4 4 4 3 3 2 2 2 2 2 3 2 2 2
2 3 3 3 2 3 3 4 2 3 4 3 3 4 5 4 5 5 5 5 5 6 6 5 6 6 6 5 5 3 3 3 3 3 3 4 4 4 4 3 2 2 2 2 2 2 2 2 2
4 2 4 5 2 3 3 4 2 3 4 4 4 3 3 4 4 4 5 6 5 6 7 6 6 6 6 6 4 4 3 3 3 3 3 3 4 4 4 3 2 2 3 2 2 3 2 2 2
4 4 5 5 2 2 2 3 2 4 4 4 4 4 4 4 4 5 6 5 5 6 6 7 6 6 6 5 4 4 3 2 2 2 3 4 3 4 4 3 3 3 3 2 2 3 3 2 2
5 5 7 5 0 1 3 3 4 5 4 4 4 4 5 5 5 6 7 7 7 7 7 7 7 6 6 4 4 3 2 2 1 1 3 3 3 4 4 3 3 3 3 2 2 2 3 3 2
5 5 5 2 1 1 1 3 3 5 5 5 5 5 5 4 4 5 7 7 8 8 7 7 7 7 6 4 3 3 3 2 2 1 2 2 3 4 3 3 3 2 2 2 2 2 2 2 3
3 5 5 3 1 3 2 4 2 2 3 4 4 4 5 7 7 7 8 7 8 9 9 8 7 7 6 5 4 4 3 3 2 1 1 1 2 3 3 4 3 3 2 2 1 2 2 1 2
4 3 3 3 2 2 2 4 5 2 3 5 6 6 6 6 6 7 8 8 9 9 8 8 8 7 6 6 6 6 4 3 3 2 2 1 1 2 3 3 4 3 2 2 1 2 1 2 1
2 3 5 4 3 2 2 0 7 1 4 7 8 8 8 8 8 9 9 10 9 9 8 7 7 6 6 6 7 6 4 3 2 2 2 1 0 0 2 3 3 3 2 2 2 2 2 1 1
5 6 6 5 5 2 1 1 7 4 6 5 6 8 9 9 8 8 7 7 6 7 7 7 7 6 6 6 6 6 7 5 4 3 2 1 0 0 1 3 3 3 3 3 3 2 3 2 2
3 5 5 5 5 4 2 2 9 7 6 7 7 9 9 9 9 8 8 9 8 8 9 8 8 7 7 7 6 7 7 7 6 5 4 3 2 1 2 2 3 3 3 3 3 3 3 3 3
3 6 6 3 4 5 2 5 8 5 4 4 5 6 7 8 8 9 10 10 9 9 9 9 9 8 7 7 7 6 6 5 4 5 4 4 3 3 3 3 3 3 3 3 3 2 3 3 3
5 2 4 6 1 2 5 7 9 2 1 3 4 5 7 8 8 9 9 9 9 9 10 10 10 8 8 8 7 6 6 6 5 5 4 3 3 3 3 3 3 3 3 3 3 3 3 3 3
4 7 5 5 3 3 5 5 5 5 4 4 5 7 8 7 7 8 8 9 9 9 9 9 9 10 8 8 8 7 7 7 6 5 5 5 4 3 4 4 4 3 3 3 3 3 3 3 3
4 4 5 4 4 5 3 8 7 8 7 8 9 9 10 10 10 10 9 9 8 7 8 9 9 8 8 9 8 7 7 7 6 6 6 5 4 5 5 5 4 4 4 4 4 4 4 4 4
4 6 7 5 4 4 3 10 5 6 6 6 8 8 8 9 10 9 8 7 8 8 8 9 9 10 10 9 8 8 7 6 7 7 6 6 6 5 5 5 5 5 5 4 5 5 5 5 6
Wind_Direction
174 159 116 58 56 48 295 219 167 149 144 149 111 107 119 177 233 256 106 136 134 139 148 151 148 143 139 136 134 132 131 131 129 128 128 127 126 125 124 123 122 119 116 113 109 108 106 104 104
140 151 49 57 76 41 290 211 172 173 163 148 122 93 78 100 115 107 125 139 137 140 143 150 150 146 143 140 138 136 135 134 133 132 132 131 130 129 127 125 122 119 117 115 114 112 109 106 105
155 126 80 69 91 192 247 210 179 158 142 140 129 101 85 133 132 134 143 136 130 136 141 155 152 150 147 144 142 140 138 138 137 137 137 136 135 135 132 129 126 123 119 119 117 113 111 109 105
106 50 54 66 274 239 223 208 174 150 124 110 124 113 118 30 144 138 136 138 133 134 142 158 155 152 150 148 147 144 143 143 142 141 142 143 143 143 140 136 131 126 124 122 122 119 115 111 105
64 72 51 10 280 266 262 208 172 159 150 138 133 125 92 16 114 130 136 140 139 135 141 156 156 154 152 150 149 148 148 148 148 150 150 152 153 151 149 147 142 138 134 132 130 125 121 115 105
59 64 66 318 293 285 318 131 144 132 137 137 135 122 91 110 124 131 134 133 136 135 135 148 157 155 154 153 153 153 153 152 154 156 157 158 161 162 160 157 156 154 150 143 139 136 130 117 102
104 97 163 263 282 285 207 109 145 149 154 162 143 128 125 143 138 131 129 128 130 133 131 136 149 154 156 156 157 157 156 157 159 160 162 163 165 166 167 167 173 173 169 171 172 167 157 139 115
133 103 303 271 255 258 162 130 84 127 156 128 139 152 163 161 142 132 132 133 136 133 129 128 128 132 142 154 160 160 159 161 161 163 168 174 178 183 188 185 202 205 204 206 211 211 208 204 187
113 76 253 237 223 237 163 160 154 91 117 103 61 135 139 139 139 136 135 141 153 154 143 134 131 131 134 145 162 160 160 163 161 164 170 162 104 74 223 230 222 227 231 234 238 243 238 230 281
118 169 235 226 213 202 178 177 168 153 153 154 87 104 133 141 150 153 157 163 169 168 163 148 147 147 144 156 140 130 130 135 127 119 122 104 90 64 60 0 244 161 112 302 284 265 316 9 18
176 210 242 252 227 190 170 165 164 157 208 200 175 155 153 152 162 166 168 173 171 165 166 162 161 158 153 141 134 123 110 110 109 109 106 99 86 61 49 43 29 32 42 34 21 27 31 30 40
200 248 243 264 221 163 159 156 165 193 218 183 154 154 160 162 172 175 174 170 161 161 171 164 168 164 161 148 141 133 127 123 117 115 116 111 101 81 70 64 49 45 44 47 39 39 15 4 11
220 261 259 241 187 135 121 151 161 208 165 129 131 140 158 169 167 169 179 164 156 163 169 165 168 166 162 148 144 139 136 135 129 116 112 118 113 104 88 69 56 48 44 53 49 39 29 19 11
239 249 284 291 86 121 130 132 120 222 146 131 139 150 162 167 161 161 168 171 173 171 172 163 164 168 160 151 143 142 143 139 123 120 120 113 113 114 105 85 66 51 42 52 65 61 57 39 25
298 346 332 336 92 133 114 42 226 185 146 143 152 157 159 162 161 168 175 173 178 173 167 164 165 161 155 147 149 145 140 132 129 126 119 118 118 118 112 97 77 54 50 65 67 55 50 42 26
26 34 323 279 179 171 149 244 214 162 155 155 161 167 167 169 173 173 163 165 170 161 157 166 170 157 151 142 137 132 128 129 128 123 121 122 118 119 110 99 84 66 62 65 75 53 54 36 21
20 337 288 289 207 167 187 241 208 168 167 177 186 182 163 172 179 168 161 170 169 167 157 159 155 153 144 131 123 116 116 120 119 119 122 124 120 119 111 104 94 83 69 55 64 54 54 34 3
272 281 279 274 251 160 207 243 206 183 190 198 196 184 167 170 182 174 170 169 163 161 155 152 147 143 128 116 106 94 90 94 107 123 132 132 129 123 113 106 98 90 79 59 55 64 49 37 347
240 247 267 274 263 159 233 239 212 195 205 211 205 193 184 177 165 164 165 169 160 155 154 156 151 147 138 130 128 125 129 125 119 142 144 142 137 128 123 116 107 93 89 79 71 76 55 29 360
223 247 259 282 51 121 282 276 220 200 212 214 210 198 191 182 166 165 161 161 166 164 165 162 160 156 157 145 136 131 128 129 125 111 128 148 149 148 146 140 132 118 105 81 68 75 79 32 24
244 211 225 212 68 46 4 319 254 228 219 223 226 206 195 191 184 180 172 171 167 170 174 171 168 162 158 139 115 97 83 73 81 104 139 168 165 167 161 157 146 140 129 122 105 95 104 80 26
259 247 182 140 109 332 32 301 289 233 239 226 221 211 208 201 188 183 178 177 179 180 175 168 166 161 157 148 146 146 151 162 183 171 170 163 155 174 175 170 164 158 149 151 157 125 111 116 71
199 58 79 85 100 21 14 286 290 291 248 239 220 213 210 201 191 190 187 186 184 176 171 168 160 160 159 160 159 149 146 153 139 127 142 150 93 213 189 175 168 167 167 172 161 139 134 132 146
128 76 60 53 61 352 293 215 284 240 226 229 213 208 204 198 192 193 188 178 176 169 166 163 162 167 165 164 162 161 160 157 151 157 169 183 206 257 200 169 171 176 180 185 181 171 168 173 168
90 85 29 360 5 269 263 237 256 251 228 212 206 203 198 193 188 186 182 181 179 175 175 171 170 176 174 169 171 173 171 168 174 178 185 183 189 209 210 179 181 187 197 197 182 180 189 189 190
175 141 153 205 239 285 302 251 258 259 243 218 203 195 186 186 188 189 189 186 184 182 180 177 180 184 178 176 178 176 172 170 180 182 181 188 196 208 204 192 197 203 202 199 187 194 204 199 208
137 148 150 129 136 301 289 288 300 273 211 200 183 178 193 195 193 194 189 188 186 186 187 187 185 187 184 182 176 178 179 180 185 185 183 189 200 207 201 197 202 209 208 204 193 211 219 210 221
128 141 104 115 142 274 296 283 257 259 222 194 192 196 204 201 200 199 196 195 195 194 189 184 187 191 186 180 182 186 187 189 187 180 191 200 205 203 195 203 210 216 217 211 202 219 226 223 233
125 111 108 111 148 163 259 274 231 220 212 199 205 203 199 199 203 204 203 200 196 190 183 186 189 186 183 185 186 182 187 187 186 191 201 202 202 201 203 209 213 220 225 218 211 227 230 234 245
165 165 147 150 206 178 192 268 271 227 222 205 210 209 201 201 204 204 200 192 189 191 190 191 191 191 192 186 182 187 187 183 190 202 206 201 205 208 208 209 216 226 229 222 221 236 235 234 244